When you browse on this site, cookies collect data to enhance your experience and personalize the content and advertising you see.
Visit our Privacy Policy to learn more. By continuing to use the site, you agree to this use of cookies and data.
  • In Sweden
  • List of Countries
  • For 7 days
  • Water Temperature
  • Weather Map
  • Weather Widgets
  • user-avatar
    Login

    Hourly Weather Cenon

    Today, 24 August, Saturday

    Time Temperature Precipitation Wind Pressure Humidity
    00:00 +23°C° 0 mm 1 mps 759 mmHg 56%
    01:00 +23°C° 0 mm 1 mps 759 mmHg 58%
    02:00 +22°C° 0 mm 1 mps 759 mmHg 60%
    03:00 +22°C° 0 mm 1 mps 759 mmHg 63%
    04:00 +20°C° 0 mm 2 mps 759 mmHg 65%
    05:00 +20°C° 0 mm 2 mps 759 mmHg 66%
    06:00 +20°C° 0 mm 2 mps 759 mmHg 68%
    07:00 +24°C° 0 mm 2 mps 759 mmHg 60%
    08:00 +26°C° 0 mm 2 mps 759 mmHg 52%
    09:00 +29°C° 0 mm 2 mps 760 mmHg 44%
    10:00 +31°C° 0 mm 2 mps 759 mmHg 38%
    11:00 +33°C° 0 mm 1 mps 759 mmHg 32%
    12:00 +36°C° 0 mm 1 mps 759 mmHg 26%
    13:00 +37°C° 0 mm 2 mps 759 mmHg 25%
    14:00 +37°C° 0 mm 2 mps 759 mmHg 24%
    15:00 +37°C° 0 mm 2 mps 759 mmHg 23%
    16:00 +34°C° 0 mm 2 mps 758 mmHg 31%
    17:00 +31°C° 0 mm 2 mps 758 mmHg 38%
    18:00 +29°C° 0 mm 2 mps 758 mmHg 46%
    19:00 +28°C° 0 mm 2 mps 758 mmHg 49%
    20:00 +26°C° 0 mm 2 mps 759 mmHg 53%
    21:00 +24°C° 0 mm 1 mps 759 mmHg 56%
    22:00 +23°C° 0 mm 1 mps 759 mmHg 58%
    23:00 +23°C° 0 mm 1 mps 759 mmHg 59%

    Tomorrow, 25 August, Sunday

    Time Temperature Precipitation Wind Pressure Humidity
    00:00 +21°C° 0 mm 2 mps 759 mmHg 61%
    01:00 +22°C° 0 mm 1 mps 759 mmHg 64%
    02:00 +21°C° 0 mm 1 mps 759 mmHg 66%
    03:00 +21°C° 0 mm 1 mps 759 mmHg 69%
    04:00 +21°C° 0 mm 1 mps 759 mmHg 70%
    05:00 +21°C° 0 mm 1 mps 759 mmHg 72%
    06:00 +19°C° 0 mm 0 mps 759 mmHg 74%
    07:00 +21°C° 0 mm 0 mps 759 mmHg 65%
    08:00 +24°C° 0 mm 0 mps 760 mmHg 57%
    09:00 +27°C° 0 mm 0 mps 760 mmHg 48%
    10:00 +29°C° 0 mm 0 mps 760 mmHg 43%
    11:00 +30°C° 0 mm 0 mps 759 mmHg 38%
    12:00 +34°C° 0 mm 1 mps 759 mmHg 33%
    13:00 +34°C° 0 mm 1 mps 759 mmHg 33%
    14:00 +34°C° 0 mm 1 mps 759 mmHg 33%
    15:00 +35°C° 0 mm 2 mps 758 mmHg 33%
    16:00 +32°C° 0 mm 2 mps 758 mmHg 39%
    17:00 +31°C° 0 mm 3 mps 758 mmHg 46%
    18:00 +29°C° 0 mm 3 mps 758 mmHg 52%
    19:00 +27°C° 0 mm 3 mps 758 mmHg 56%
    20:00 +25°C° 0 mm 2 mps 758 mmHg 60%
    21:00 +24°C° 0 mm 2 mps 759 mmHg 63%
    22:00 +23°C° 0 mm 2 mps 759 mmHg 65%
    23:00 +23°C° 0 mm 2 mps 759 mmHg 66%

    Day after tomorrow, 26 August, Monday

    Time Temperature Precipitation Wind Pressure Humidity
    00:00 +22°C° 0 mm 1 mps 759 mmHg 68%
    01:00 +21°C° 0 mm 1 mps 758 mmHg 69%
    02:00 +21°C° 0 mm 1 mps 758 mmHg 70%
    03:00 +18°C° 0 mm 0 mps 758 mmHg 72%
    04:00 +20°C° 0 mm 1 mps 758 mmHg 72%
    05:00 +20°C° 0 mm 1 mps 758 mmHg 73%
    06:00 +20°C° 0 mm 1 mps 758 mmHg 74%
    07:00 +23°C° 0 mm 1 mps 758 mmHg 66%
    08:00 +25°C° 0 mm 1 mps 758 mmHg 58%
    09:00 +28°C° 0 mm 1 mps 758 mmHg 51%
    10:00 +30°C° 0 mm 1 mps 758 mmHg 45%
    11:00 +32°C° 0 mm 1 mps 758 mmHg 40%
    12:00 +34°C° 0 mm 1 mps 757 mmHg 34%
    13:00 +34°C° 0 mm 1 mps 757 mmHg 33%
    14:00 +35°C° 0 mm 2 mps 757 mmHg 32%
    15:00 +36°C° 0 mm 2 mps 756 mmHg 31%
    16:00 +34°C° 0 mm 2 mps 756 mmHg 38%
    17:00 +31°C° 0 mm 2 mps 756 mmHg 44%
    18:00 +29°C° 0 mm 2 mps 756 mmHg 50%
    19:00 +28°C° 0 mm 2 mps 756 mmHg 53%
    20:00 +26°C° 0 mm 2 mps 756 mmHg 56%
    21:00 +25°C° 0 mm 2 mps 757 mmHg 59%
    22:00 +24°C° 0 mm 2 mps 757 mmHg 59%
    23:00 +24°C° 0 mm 2 mps 757 mmHg 59%

    27 August, Tuesday

    Time Temperature Precipitation Wind Pressure Humidity
    00:00 +24°C° 0 mm 2 mps 757 mmHg 59%
    01:00 +23°C° 0 mm 1 mps 757 mmHg 62%
    02:00 +22°C° 0 mm 1 mps 757 mmHg 66%
    03:00 +22°C° 0 mm 1 mps 757 mmHg 69%
    04:00 +21°C° 0 mm 1 mps 757 mmHg 70%
    05:00 +21°C° 0 mm 1 mps 757 mmHg 72%
    06:00 +21°C° 0 mm 1 mps 757 mmHg 73%
    07:00 +23°C° 0 mm 1 mps 757 mmHg 66%
    08:00 +25°C° 0 mm 1 mps 758 mmHg 59%
    09:00 +27°C° 0 mm 2 mps 758 mmHg 53%
    10:00 +29°C° 0 mm 2 mps 758 mmHg 49%
    11:00 +30°C° 0 mm 2 mps 758 mmHg 45%
    12:00 +32°C° 0 mm 2 mps 758 mmHg 41%
    13:00 +31°C° 0 mm 3 mps 758 mmHg 42%
    14:00 +31°C° 0 mm 3 mps 758 mmHg 44%
    15:00 +30°C° 0 mm 4 mps 758 mmHg 46%
    16:00 +28°C° 0.6 mm 3 mps 758 mmHg 56%
    17:00 +26°C° 0.6 mm 3 mps 758 mmHg 66%
    18:00 +24°C° 0.6 mm 2 mps 758 mmHg 75%
    19:00 +23°C° 0.1 mm 1 mps 758 mmHg 78%
    20:00 +23°C° 0.1 mm 1 mps 758 mmHg 80%
    21:00 +22°C° 0.1 mm 1 mps 759 mmHg 82%
    22:00 +22°C° 0 mm 1 mps 759 mmHg 83%
    23:00 +21°C° 0 mm 1 mps 759 mmHg 84%

    28 August, Wednesday

    Time Temperature Precipitation Wind Pressure Humidity
    00:00 +19°C° 0 mm 0 mps 759 mmHg 86%
    01:00 +19°C° 0 mm 0 mps 759 mmHg 87%
    02:00 +18°C° 0 mm 0 mps 759 mmHg 88%
    03:00 +18°C° 0 mm 0 mps 759 mmHg 89%
    04:00 +18°C° 0 mm 0 mps 759 mmHg 89%
    05:00 +18°C° 0 mm 0 mps 759 mmHg 89%
    06:00 +18°C° 0 mm 0 mps 759 mmHg 88%
    07:00 +20°C° 0 mm 0 mps 759 mmHg 82%
    08:00 +23°C° 0 mm 1 mps 759 mmHg 77%
    09:00 +25°C° 0 mm 1 mps 759 mmHg 71%
    10:00 +26°C° 0 mm 1 mps 759 mmHg 67%
    11:00 +27°C° 0 mm 1 mps 759 mmHg 62%
    12:00 +28°C° 0 mm 2 mps 759 mmHg 58%
    13:00 +28°C° 0 mm 3 mps 759 mmHg 57%
    14:00 +28°C° 0 mm 3 mps 759 mmHg 57%
    15:00 +28°C° 0 mm 4 mps 759 mmHg 56%
    16:00 +27°C° 0 mm 4 mps 759 mmHg 63%
    17:00 +25°C° 0 mm 4 mps 759 mmHg 69%
    18:00 +24°C° 0 mm 3 mps 759 mmHg 75%
    19:00 +22°C° 0 mm 3 mps 760 mmHg 81%
    20:00 +20°C° 0 mm 2 mps 760 mmHg 86%
    21:00 +19°C° 0 mm 2 mps 760 mmHg 92%
    22:00 +19°C° 0 mm 2 mps 760 mmHg 91%
    23:00 +19°C° 0 mm 2 mps 761 mmHg 90%

    29 August, Thursday

    Time Temperature Precipitation Wind Pressure Humidity
    00:00 +19°C° 0 mm 2 mps 761 mmHg 89%
    01:00 +20°C° 0 mm 2 mps 761 mmHg 87%
    02:00 +20°C° 0 mm 2 mps 761 mmHg 84%
    03:00 +21°C° 0 mm 1 mps 760 mmHg 82%
    04:00 +21°C° 0 mm 1 mps 761 mmHg 81%
    05:00 +20°C° 0 mm 2 mps 761 mmHg 80%
    06:00 +20°C° 0 mm 2 mps 761 mmHg 79%
    07:00 +21°C° 0 mm 2 mps 761 mmHg 75%
    08:00 +21°C° 0 mm 2 mps 761 mmHg 72%
    09:00 +23°C° 0 mm 2 mps 761 mmHg 69%
    10:00 +24°C° 0 mm 2 mps 761 mmHg 64%
    11:00 +25°C° 0 mm 2 mps 761 mmHg 59%
    12:00 +26°C° 0 mm 2 mps 761 mmHg 53%
    13:00 +27°C° 0 mm 2 mps 761 mmHg 52%
    14:00 +27°C° 0 mm 3 mps 761 mmHg 51%
    15:00 +27°C° 0 mm 3 mps 760 mmHg 50%
    16:00 +26°C° 0 mm 3 mps 760 mmHg 55%
    17:00 +24°C° 0 mm 3 mps 760 mmHg 60%
    18:00 +22°C° 0 mm 3 mps 760 mmHg 64%
    19:00 +21°C° 0 mm 3 mps 760 mmHg 71%
    20:00 +19°C° 0 mm 2 mps 761 mmHg 77%
    21:00 +18°C° 0 mm 2 mps 761 mmHg 84%
    22:00 +17°C° 0 mm 2 mps 761 mmHg 87%
    23:00 +18°C° 0 mm 1 mps 761 mmHg 90%
    Show more